Location: Unspecified
(0.0000°N, 0.0000°E)
Time: 22:28:00
(UTC+00:00)

Tiros 9 - Visible Passes

Search period start: 29 April 2025 00:00
Search period end: 09 May 2025 00:00
Orbit: 704 x 2558 km, 96.4° (Epoch: 28 April)

Date Brightness Start Highest point End Pass type
(mag) Time Alt. Az. Time Alt. Az. Time Alt. Az.
29 Apr 10.6 03:15:53 10° E 03:16:27 10° E 03:17:01 10° ESE visible
29 Apr 8.5 05:09:20 10° NNW 05:14:14 28° WNW 05:18:19 10° SW visible
30 Apr 8.1 04:56:36 10° N 05:01:50 37° WNW 05:06:09 10° SW visible
01 May 7.7 04:43:59 10° N 04:49:24 49° WNW 04:53:20 13° SSW visible
02 May 7.4 04:31:28 10° N 04:36:55 67° WNW 04:40:16 19° SSW visible
03 May 7.4 04:19:02 10° N 04:24:25 90° NE 04:27:14 24° S visible
04 May 7.7 04:06:41 10° NNE 04:11:55 66° E 04:14:13 29° S visible
05 May 8.3 03:54:27 10° NNE 03:59:22 47° E 04:01:14 30° SSE visible
06 May 8.8 03:42:19 10° NE 03:46:50 34° E 03:48:16 28° SE visible
06 May 12.2 18:30:33 10° WSW 18:33:57 11° WSW 18:37:27 10° W visible
07 May 9.3 03:30:20 10° NE 03:34:18 25° E 03:35:18 23° ESE visible
07 May 12.2 18:15:37 10° SW 18:21:47 15° WSW 18:28:16 10° WNW visible
08 May 9.7 03:18:34 10° NE 03:21:46 18° E 03:22:22 18° ESE visible
08 May 9.2 05:17:03 10° NW 05:19:14 13° WNW 05:21:17 10° WSW visible
